Change the Weather History Date:

Sunday, June 8, 2014

  Actual Average (KHKY) Record (KHKY)
Temperature  
Mean Temperature 75 °F -  
Max Temperature 83 °F 83 °F 99 °F (2008)
Min Temperature 65 °F 62 °F 47 °F (1977)
Cooling Degree Days 10    
Growing Degree Days 25 (Base 50)    
Moisture  
Dew Point 68 °F    
Average Humidity 83    
Maximum Humidity 100    
Minimum Humidity 57    
Precipitation  
Precipitation 0.00 in - - ()
Sea Level Pressure  
Sea Level Pressure 29.98 in    
Wind  
Wind Speed 2 mph (SE)    
Max Wind Speed 9 mph    
Max Gust Speed -    
Visibility 10 miles    
Events      
Averages and records for this station are not official NWS values.
T = Trace of Precipitation, MM = Missing Value Source: NWS Daily Summary

Daily Weather History Graph

Daily Weather History Graph

Search for Another Location

Airport or City:

Trip Planner

Search our weather history database for the weather conditions in past years. The results will help you decide how hot, cold, wet, or windy it might be!

Date:

Astronomy

Jun. 08, 2014 Rise Set
Actual Time 6:09 AM EDT 8:41 PM EDT
Civil Twilight 5:40 AM EDT 9:11 PM EDT
Nautical Twilight 5:03 AM EDT 9:48 PM EDT
Astronomical Twilight 4:22 AM EDT 10:29 PM EDT
Moon 4:06 PM EDT (6/8) 2:53 AM EDT (6/8)
Length of Visible Light 15h 31m
Length of Day
14h 31m
Waxing Gibbous, 77% of the Moon is Illuminated
Jun 8
Waxing Gibbous
Jun 13
Full
Jun 19
Last Quarter
Jun 27
New
Jul 5
First Quarter

Hourly Weather History & Observations

Time (EDT) Temp. Heat Index Dew Point Humidity Pressure Visibility Wind Dir Wind Speed Gust Speed Precip Events Conditions
12:15 AM 68.9 °F - 67.1 °F 94% 30.04 in 10.0 mi Calm Calm - N/A   Scattered Clouds
12:35 AM 68.2 °F - 66.7 °F 95% 30.05 in 10.0 mi Calm Calm - N/A   Mostly Cloudy
12:55 AM 68.0 °F - 66.9 °F 96% 30.05 in 10.0 mi Calm Calm - N/A   Mostly Cloudy
1:15 AM 68.4 °F - 67.5 °F 97% 30.04 in 10.0 mi Calm Calm - N/A   Overcast
1:35 AM 68.9 °F - 66.4 °F 92% 30.04 in 10.0 mi Calm Calm - N/A   Mostly Cloudy
1:55 AM 69.3 °F - 66.0 °F 89% 30.03 in 10.0 mi SE 3.5 mph - N/A   Mostly Cloudy
2:15 AM 70.0 °F - 65.5 °F 86% 30.02 in 10.0 mi SE 3.5 mph - N/A   Overcast
2:35 AM 70.3 °F - 66.4 °F 87% 30.01 in 10.0 mi Calm Calm - N/A   Overcast
2:55 AM 70.3 °F - 66.7 °F 88% 30.01 in 10.0 mi Calm Calm - N/A   Overcast
3:15 AM 69.4 °F - 67.5 °F 93% 30.01 in 10.0 mi Calm Calm - N/A   Overcast
3:35 AM 68.7 °F - 67.3 °F 95% 30.01 in 10.0 mi Calm Calm - N/A   Overcast
3:55 AM 69.8 °F - 67.5 °F 92% 30.01 in 10.0 mi SE 3.5 mph - N/A   Overcast
4:15 AM 69.8 °F - 67.1 °F 91% 30.00 in 10.0 mi ESE 4.6 mph - N/A   Drizzle
4:35 AM 69.3 °F - 67.1 °F 93% 30.00 in 10.0 mi SSE 4.6 mph - N/A   Overcast
4:55 AM 69.8 °F - 66.7 °F 90% 30.00 in 10.0 mi SSE 4.6 mph - N/A   Overcast
5:15 AM 69.8 °F - 66.9 °F 91% 30.00 in 10.0 mi SE 3.5 mph - N/A   Overcast
5:35 AM 69.8 °F - 67.1 °F 91% 30.00 in 10.0 mi SSE 3.5 mph - N/A   Overcast
5:55 AM 69.8 °F - 67.1 °F 91% 30.00 in 10.0 mi SSE 4.6 mph - N/A   Overcast
6:15 AM 69.8 °F - 67.1 °F 91% 30.00 in 10.0 mi SE 3.5 mph - N/A   Overcast
6:35 AM 69.8 °F - 67.3 °F 92% 30.01 in 10.0 mi SE 3.5 mph - N/A   Overcast
6:55 AM 70.0 °F - 67.8 °F 93% 30.01 in 10.0 mi Calm Calm - N/A   Overcast
7:15 AM 70.0 °F - 68.0 °F 93% 30.01 in 10.0 mi East 3.5 mph - N/A   Overcast
7:35 AM 69.8 °F - 67.6 °F 93% 30.01 in 10.0 mi ESE 3.5 mph - N/A   Overcast
7:55 AM 69.8 °F - 67.6 °F 93% 30.01 in 10.0 mi SE 3.5 mph - N/A   Overcast
8:15 AM 70.3 °F - 68.0 °F 92% 30.02 in 10.0 mi SSE 3.5 mph - N/A   Overcast
8:35 AM 70.5 °F - 68.0 °F 92% 30.02 in 10.0 mi SE 3.5 mph - N/A   Overcast
8:55 AM 71.4 °F - 68.2 °F 89% 30.02 in 10.0 mi SSE 3.5 mph - N/A   Overcast
9:15 AM 71.8 °F - 68.0 °F 88% 30.02 in 10.0 mi SSE 3.5 mph - N/A   Mostly Cloudy
9:35 AM 72.0 °F - 67.5 °F 86% 30.01 in 10.0 mi Calm Calm - N/A   Mostly Cloudy
9:55 AM 73.6 °F - 68.0 °F 83% 30.00 in 10.0 mi SE 5.8 mph - N/A   Mostly Cloudy
10:35 AM 72.9 °F - 67.6 °F 84% 30.01 in 10.0 mi SE 4.6 mph - N/A   Overcast
10:55 AM 72.9 °F - 68.4 °F 86% 30.01 in 10.0 mi Calm Calm - N/A   Overcast
11:15 AM 75.4 °F - 68.4 °F 79% 30.00 in 10.0 mi ESE 4.6 mph - N/A   Mostly Cloudy
11:35 AM 75.7 °F - 68.2 °F 77% 30.01 in 10.0 mi SSW 3.5 mph - N/A   Mostly Cloudy
11:55 AM 76.1 °F - 67.3 °F 74% 30.01 in 10.0 mi South 5.8 mph - N/A   Overcast
12:15 PM 76.8 °F - 68.0 °F 74% 30.00 in 10.0 mi South 5.8 mph - N/A   Overcast
12:35 PM 78.4 °F - 67.1 °F 68% 30.01 in 10.0 mi SW 6.9 mph - N/A   Mostly Cloudy
1:15 PM 80.8 °F 83.3 °F 67.6 °F 64% 29.98 in 10.0 mi South 4.6 mph - N/A   Scattered Clouds
1:35 PM 79.9 °F - 67.3 °F 65% 29.97 in 10.0 mi South 4.6 mph - N/A   Mostly Cloudy
2:15 PM 80.8 °F 82.5 °F 64.8 °F 58% 29.95 in 10.0 mi South 5.8 mph - N/A   Mostly Cloudy
2:35 PM 81.5 °F 83.3 °F 64.8 °F 57% 29.95 in 10.0 mi South 4.6 mph - N/A   Scattered Clouds
2:55 PM 82.6 °F 85.3 °F 67.6 °F 60% 29.94 in 10.0 mi SE 4.6 mph - N/A   Mostly Cloudy
3:15 PM 82.4 °F 85.0 °F 67.5 °F 60% 29.94 in 10.0 mi SE 4.6 mph - N/A   Mostly Cloudy
3:35 PM 82.0 °F 84.9 °F 68.0 °F 62% 29.94 in 10.0 mi SSE 6.9 mph - N/A   Scattered Clouds
3:55 PM 81.3 °F 84.0 °F 67.8 °F 63% 29.93 in 10.0 mi SSE 5.8 mph - N/A   Scattered Clouds
4:15 PM 82.6 °F 85.5 °F 68.0 °F 61% 29.93 in 10.0 mi SE 4.6 mph - N/A   Mostly Cloudy
4:35 PM 82.4 °F 85.0 °F 67.3 °F 60% 29.92 in 10.0 mi SSE 4.6 mph - N/A   Scattered Clouds
4:55 PM 82.9 °F 86.0 °F 68.2 °F 61% 29.91 in 10.0 mi SE 4.6 mph - N/A   Scattered Clouds
5:15 PM 83.5 °F 86.4 °F 68.0 °F 59% 29.91 in 10.0 mi South 5.8 mph - N/A   Scattered Clouds
5:35 PM 81.1 °F 84.0 °F 68.5 °F 65% 29.91 in 10.0 mi South 4.6 mph - N/A   Mostly Cloudy
5:55 PM 80.4 °F 83.2 °F 68.5 °F 67% 29.91 in 10.0 mi Calm Calm - N/A   Overcast
6:15 PM 78.3 °F - 68.2 °F 71% 29.91 in 10.0 mi NNE 9.2 mph - N/A   Overcast
6:35 PM 77.4 °F - 68.4 °F 74% 29.91 in 10.0 mi Calm Calm - N/A   Overcast
6:55 PM 78.8 °F - 68.5 °F 71% 29.91 in 10.0 mi NE 8.1 mph - N/A   Scattered Clouds
7:15 PM 78.8 °F - 68.2 °F 70% 29.91 in 10.0 mi Calm Calm - N/A   Clear
7:35 PM 78.1 °F - 69.4 °F 75% 29.91 in 10.0 mi NE 3.5 mph - N/A   Clear
7:55 PM 76.8 °F - 67.8 °F 74% 29.92 in 10.0 mi ESE 3.5 mph - N/A   Clear
8:15 PM 74.7 °F - 69.3 °F 83% 29.93 in 10.0 mi East 3.5 mph - N/A   Clear
8:35 PM 73.4 °F - 69.1 °F 86% 29.93 in 10.0 mi ENE 3.5 mph - N/A   Clear
8:55 PM 72.3 °F - 68.9 °F 89% 29.93 in 10.0 mi East 5.8 mph - N/A   Clear
9:15 PM 71.6 °F - 68.9 °F 91% 29.94 in 10.0 mi Calm Calm - N/A   Scattered Clouds
9:35 PM 71.2 °F - 68.9 °F 92% 29.95 in 10.0 mi Calm Calm - N/A   Scattered Clouds
9:55 PM 70.2 °F - 68.7 °F 95% 29.96 in 10.0 mi Calm Calm - N/A   Clear
10:15 PM 68.4 °F - 67.8 °F 98% 29.96 in 10.0 mi Calm Calm - N/A   Clear
10:35 PM 69.1 °F - 68.9 °F 99% 29.96 in 7.0 mi Calm Calm - N/A   Scattered Clouds
10:55 PM 68.5 °F - 68.2 °F 99% 29.97 in 5.0 mi Calm Calm - N/A   Clear
11:15 PM 67.3 °F - 67.3 °F 100% 29.96 in 5.0 mi Calm Calm - N/A   Scattered Clouds
11:35 PM 68.2 °F - 68.2 °F 100% 29.97 in 10.0 mi Calm Calm - N/A   Scattered Clouds
11:55 PM 65.7 °F - 65.5 °F 99% 29.97 in 7.0 mi Calm Calm - N/A   Scattered Clouds